Location: Unspecified
(0.0000°N, 0.0000°E)
Time: 21:37:16
(UTC+01:00)

USA 116 - Visible Passes

Search period start: 27 February 2017 00:00
Search period end: 09 March 2017 00:00
Orbit: 405 x 834 km, 97.9° (Epoch: 18 November)

Date Brightness Start Highest point End Pass type
(mag) Time Alt. Az. Time Alt. Az. Time Alt. Az.
27 Feb 3.8 06:22:26 10° S 06:25:33 36° WSW 06:28:27 10° NW visible
28 Feb 4.6 06:36:37 10° SSW 06:39:08 20° WSW 06:41:32 10° NW visible
01 Mar 6.6 05:16:26 10° E 05:17:03 10° E 05:17:40 10° ENE visible
02 Mar 6.0 05:28:29 10° SE 05:30:43 18° E 05:32:53 10° NE visible
03 Mar 5.0 05:41:30 10° SE 05:44:22 31° E 05:47:08 10° NNE visible
04 Mar 3.6 05:54:52 10° SSE 05:58:00 58° ENE 06:01:01 10° N visible
05 Mar 2.9 06:08:29 10° S 06:11:37 70° WSW 06:14:41 10° NNW visible
06 Mar 3.7 06:22:20 10° S 06:25:14 35° WSW 06:28:05 10° NNW visible
07 Mar 4.5 06:36:29 10° SSW 06:38:51 20° WSW 06:41:12 10° NW visible
